User: anonymous   Login
Location: Nickerson Gardens
(33.9320°N, 118.2484°W)
Time: 13:43:36
(UTC+00:00)
Language:

POLYITAN 1 - Orbit

View from above orbital plane
View from above orbital plane
View from above satellite
View from above satellite

Ground track
Ground track

The orbit data is extracted from the following two-line orbital elements,

1 40042U 14033AJ  21110.08279506  .00000752  00000-0  85451-4 0  9994
2 40042  97.9401  41.3823 0014941   7.7451 352.3994 14.89194842371136
Epoch (UTC): 20 April 2021 01:59:13
Eccentricity: 0.0014941
inclination: 97.9401°
perigee height: 590 km
apogee height: 611 km
right ascension of ascending node: 41.3823°
argument of perigee: 7.7451°
revolutions per day: 14.89194842
mean anomaly at epoch: 352.3994°
orbit number at epoch: 37113

The dashed part of the orbit path shows where the satellite is in the earth's shadow,  

DLR